Location: Chilton Park
(37.7711°N, 100.0276°W)
Time: 03:07:13
(UTC+00:00)

Cosmos 2227 Rocket - Pass Details

Date: 12 July 2022
Orbit: 840 x 844 km, 71.0° (Epoch: 13 August)

Event Time Altitude Azimuth Distance (km) Brightness Sun altitude
Exits shadow 08:13:10 43° 283° (WNW) 1,176 2.8 -26.8°
Maximum altitude 08:13:39 44° 297° (WNW) 1,160 2.9 -26.8°
Drops below altitude 10° 08:19:02 10° 9° (N) 2,470 5.6 -26.4°
Sets 08:21:37 0° 16° (NNE) 3,408 6.7 -26.2°
